Miscellaneous Local Product
Issued by NWS North Platte, NE

Home | Current Version | Previous Version | Text Only | Print | Product List | Glossary On
Versions: 1 2 3 4 5 6 7 8 9 10 11 12 13 14 15 16 17 18 19 20 21 22 23 24 25 26 27 28 29 30 31 32 33 34 35 36 37 38 39 40 41 42 43 44 45 46 47 48 49 50
000
AXUS43 KLBF 242310
MISLBF


WESTERN AND NORTH CENTRAL NEBRASKA HOURLY WEATHER ROUNDUP
NATIONAL WEATHER SERVICE NORTH PLATTE NE
600 PM CDT TUE APR 24 2018

NOTE: "FAIR" INDICATES FEW OR NO CLOUDS BELOW 12,000 FEET WITH NO
SIGNIFICANT WEATHER AND/OR OBSTRUCTIONS TO VISIBILITY.

NOTE: STATIONS NOT REPORTING VARIABLES SUCH AS SKY/WEATHER OR
PRESSURE ARE PROVIDED BY RAWS AND APRS NETWORKS AND ARE NOT UNDER
NATIONAL WEATHER SERVICE QUALITY CONTROL.

...OBSERVATIONS IN AND NEAR THE EASTERN PANHANDLE OF NEBRASKA...

CITY           SKY/WX    TMP DP  RH WIND       PRES   REMARKS
PINE RIDGE     CLOUDY    43  28  55 N14       30.42F
GORDON         CLOUDY    39  31  72 N14G21    30.42R WCI  31
CHADRON        CLOUDY    45  29  53 NE14      30.42F
ALLIANCE       CLOUDY    39  29  67 N20       30.40R WCI  29
SIDNEY         CLOUDY    40  29  64 N21G28    30.39S WCI  30
CRESCENT LAKE    N/A     41  32  69 N17G30      N/A
$$

...OBSERVATIONS IN NORTHERN NEBRASKA AND FAR SOUTHERN SOUTH DAKOTA...

CITY           SKY/WX    TMP DP  RH WIND       PRES   REMARKS
WINNER         LGT RAIN  42  37  82 N14       30.38S
VALENTINE      LGT RAIN  39  36  89 N16G29    30.39R WCI  30
AINSWORTH      DRIZZLE   37  37 100 N21G26    30.36S WCI  26
O`NEILL        CLOUDY    44  43  96 N21G26    30.30R FOG
THEDFORD       DRIZZLE   38  36  94 N18G24    30.36R WCI  28
BROKEN BOW     LGT RAIN  41  38  89 N22G38    30.29R
ORD            CLOUDY    44  42  93 N20       30.26R FOG
ALBION         CLOUDY    50  47  90 N18G24    30.22R
VALENTINE NWR    N/A     37  35  94 N20G30      N/A  WCI  26
HALSEY           N/A     38  37  96 NW12G23     N/A  WCI  30
BUTTE            N/A     39  37  94 NE18G28     N/A  WCI  29
CHAMBERS         N/A     43  42  97 N8          N/A
EWING            N/A     45  42  89 N3          N/A
$$

...OBSERVATIONS IN SOUTHWEST NEBRASKA AND FAR NORTHEAST COLORADO...

CITY           SKY/WX    TMP DP  RH WIND       PRES   REMARKS
WRAY           CLOUDY    41  32  70 N20G30    30.38S
HOLYOKE        MOCLDY    43  32  65 N21G29    30.38S
IMPERIAL       CLOUDY    42  35  76 N24G33    30.36R
OGALLALA       CLOUDY    42  34  72 N25       30.37S
NORTH PLATTE   CLOUDY    41  35  79 N17G29    30.35R
MCCOOK         CLOUDY    45  37  73 N22G31    30.32R
LEXINGTON      CLOUDY    43  38  83 N22G30    30.30R
STAPLETON        N/A     37  34  90 N3G13       N/A
GOTHENBURG       N/A     41  34  77 N15         N/A
CALLAWAY         N/A     40  38  91 N23         N/A  WCI  30
$$

...OBSERVATIONS IN CENTRAL LINCOLN COUNTY AREA...

CITY           SKY/WX    TMP DP  RH WIND       PRES   REMARKS
N.P. AIRPORT   CLOUDY    41  35  79 N17G29    30.35R
N.P. DOWNTOWN    N/A     40  35  84 N8G18       N/A  WCI  34
N.P. SOUTHEAST   N/A     39  34  81 N13G23      N/A  WCI  31
N.P. HILLCREST   N/A     40  35  84 N22G32      N/A  WCI  30
$$

...OBSERVATIONS ACROSS THE ROCKIES AND WESTERN HIGH PLAINS...

CITY           SKY/WX    TMP DP  RH WIND       PRES   REMARKS
RAPID CITY     MOSUNNY   50  25  37 N17       30.41F
SCOTTSBLUFF    CLOUDY    44  32  62 N10       30.41S
CHEYENNE       PTSUNNY   37  24  59 N17G25    30.38S WCI  27
DENVER         CLOUDY    40  31  70 N6        30.38S
BERTHOUD PASS  CLOUDY    19   9  63 MISG      30.32S
MONARCH PASS   CLOUDY    34  25  69 W30       30.43R WCI  20
ASPEN          CLOUDY    50  23  34 N15G23    30.22R
STEAMBOAT      PTSUNNY   47  21  35 W9        30.25F
LARAMIE        CLOUDY    35  22  58 N12       30.36R WCI  27
CASPER         PTSUNNY   41  24  51 N8        30.43F
$$

...OBSERVATIONS ACROSS THE NORTHERN PLAINS...

CITY           SKY/WX    TMP DP  RH WIND       PRES   REMARKS
BISMARCK       SUNNY     58  24  27 NW7G21    30.37F
FARGO          FAIR      53  28  38 N22G31    30.33S
PIERRE         MOSUNNY   49  38  65 W9        30.37F
SIOUX FALLS    CLOUDY    46  37  71 N18G28    30.26R
$$

...OBSERVATIONS ACROSS THE CENTRAL AND SOUTHERN PLAINS...

CITY           SKY/WX    TMP DP  RH WIND       PRES   REMARKS
OMAHA          CLOUDY    62  45  53 NW15      30.15R
GRAND ISLAND   CLOUDY    47  45  93 NW16      30.23S
KANSAS CITY    CLOUDY    71  36  27 N8        30.06S
WICHITA        CLOUDY    64  48  56 N22G30    30.14R
DODGE CITY     CLOUDY    45  39  79 N23G32    30.26R
OKLAHOMA CITY  MOSUNNY   76  45  33 N9        30.05S
DALLAS         PTSUNNY   82  47  29 CALM      29.99S
AMARILLO       SUNNY     56  40  55 N25G35    30.19R
$$




USA.gov is the U.S. government's official web portal to all federal, state and local government web resources and services.